Location: ?????
(42.2640°N, 43.4211°E)
Time: 14:05:06
(UTC+00:00)

Cosmos 2297 Rocket - Pass Details

Date: 07 August 2020
Orbit: 838 x 845 km, 71.0° (Epoch: 20 September)

Event Time Altitude Azimuth Distance (km) Brightness Sun altitude
Exits shadow 00:46:08 - 278° (W) 2,673 4.4 -13.5°
Reaches altitude 10° 00:47:16 10° 288° (WNW) 2,457 4.3 -13.3°
Maximum altitude 00:49:53 13° 316° (NW) 2,235 4.3 -12.9°
Drops below altitude 10° 00:52:31 10° 344° (NNW) 2,464 4.9 -12.5°
Sets 00:56:28 0° 11° (NNE) 3,405 6.1 -12.0°
